Time,TemperatureF,DewpointF,PressureIn,WindDirection,WindDirectionDegrees,WindSpeedMPH,WindSpeedGustMPH,Humidity,HourlyPrecipIn,Conditions,Clouds,dailyrainin,SoftwareType,DateUTC
2013-03-12 00:09:00,47.4,26.0,30.06,WNW,299,0.0,-999.0,44,-99.99,,,0.00,weatherlink.com 1.10,2013-03-12 05:09:00,
2013-03-12 00:24:00,47.9,26.0,30.05,WNW,303,0.0,-999.0,42,-99.99,,,0.00,weatherlink.com 1.10,2013-03-12 05:24:00,
2013-03-12 00:39:00,48.1,25.0,30.05,East,83,0.0,-999.0,41,-99.99,,,0.00,weatherlink.com 1.10,2013-03-12 05:39:00,
2013-03-12 00:54:00,47.2,26.0,30.06,SE,132,0.0,-999.0,43,-99.99,,,0.00,weatherlink.com 1.10,2013-03-12 05:54:00,
2013-03-12 01:09:00,47.0,25.0,30.06,SE,132,0.0,-999.0,43,-99.99,,,0.00,weatherlink.com 1.10,2013-03-12 06:09:00,
2013-03-12 01:24:00,46.1,26.0,30.07,SE,132,0.0,-999.0,45,-99.99,,,0.00,weatherlink.com 1.10,2013-03-12 06:24:00,
2013-03-12 01:39:00,45.3,26.0,30.07,SE,132,0.0,-999.0,48,-99.99,,,0.00,weatherlink.com 1.10,2013-03-12 06:39:00,
2013-03-12 01:54:00,44.8,27.0,30.06,SE,132,0.0,-999.0,49,-99.99,,,0.00,weatherlink.com 1.10,2013-03-12 06:54:00,
2013-03-12 02:09:00,44.8,27.0,30.07,SE,132,0.0,-999.0,49,-99.99,,,0.00,weatherlink.com 1.10,2013-03-12 07:09:00,
2013-03-12 02:25:00,44.8,25.0,30.06,SE,132,0.0,-999.0,47,-99.99,,,0.00,weatherlink.com 1.10,2013-03-12 07:25:00,
2013-03-12 02:40:00,44.8,25.0,30.05,SE,132,0.0,-999.0,47,-99.99,,,0.00,weatherlink.com 1.10,2013-03-12 07:40:00,
2013-03-12 02:55:00,45.5,25.0,30.05,ESE,117,0.0,-999.0,45,-99.99,,,0.00,weatherlink.com 1.10,2013-03-12 07:55:00,
2013-03-12 03:10:00,46.0,24.0,30.04,ESE,119,0.0,-999.0,43,-99.99,,,0.00,weatherlink.com 1.10,2013-03-12 08:10:00,
2013-03-12 03:25:00,45.7,24.0,30.04,ESE,119,0.0,-999.0,43,-99.99,,,0.00,weatherlink.com 1.10,2013-03-12 08:25:00,
2013-03-12 03:40:00,46.0,24.0,30.03,East,99,0.0,-999.0,42,-99.99,,,0.00,weatherlink.com 1.10,2013-03-12 08:40:00,
2013-03-12 03:55:00,45.8,24.0,30.04,East,100,0.0,-999.0,42,-99.99,,,0.00,weatherlink.com 1.10,2013-03-12 08:55:00,
2013-03-12 04:10:00,45.4,24.0,30.04,East,100,0.0,-999.0,44,-99.99,,,0.00,weatherlink.com 1.10,2013-03-12 09:10:00,
2013-03-12 04:25:00,45.0,24.0,30.05,East,99,0.0,-999.0,44,-99.99,,,0.00,weatherlink.com 1.10,2013-03-12 09:25:00,
2013-03-12 04:40:00,45.0,25.0,30.05,East,99,0.0,-999.0,46,-99.99,,,0.00,weatherlink.com 1.10,2013-03-12 09:40:00,
2013-03-12 04:55:00,44.2,25.0,30.06,SSE,165,0.0,-999.0,48,-99.99,,,0.00,weatherlink.com 1.10,2013-03-12 09:55:00,
2013-03-12 05:10:00,43.3,26.0,30.06,SSE,164,0.0,-999.0,50,-99.99,,,0.00,weatherlink.com 1.10,2013-03-12 10:10:00,
2013-03-12 05:25:00,42.6,26.0,30.07,SSE,165,0.0,-999.0,52,-99.99,,,0.00,weatherlink.com 1.10,2013-03-12 10:25:00,
2013-03-12 05:40:00,42.3,26.0,30.07,SSE,165,0.0,-999.0,53,-99.99,,,0.00,weatherlink.com 1.10,2013-03-12 10:40:00,
2013-03-12 05:55:00,41.9,26.0,30.08,SSE,164,0.0,-999.0,54,-99.99,,,0.00,weatherlink.com 1.10,2013-03-12 10:55:00,
2013-03-12 06:10:00,41.4,26.0,30.09,SSE,165,0.0,-999.0,55,-99.99,,,0.00,weatherlink.com 1.10,2013-03-12 11:10:00,
2013-03-12 06:25:00,41.6,26.0,30.09,SSE,164,0.0,-999.0,55,-99.99,,,0.00,weatherlink.com 1.10,2013-03-12 11:25:00,
2013-03-12 06:40:00,42.5,25.0,30.09,SSE,164,0.0,-999.0,51,-99.99,,,0.00,weatherlink.com 1.10,2013-03-12 11:40:00,
2013-03-12 06:55:00,43.7,25.0,30.09,SSE,161,0.0,-999.0,48,-99.99,,,0.00,weatherlink.com 1.10,2013-03-12 11:55:00,
2013-03-12 07:10:00,44.3,25.0,30.09,SSE,159,0.0,-999.0,47,-99.99,,,0.00,weatherlink.com 1.10,2013-03-12 12:10:00,
2013-03-12 07:25:00,43.1,26.0,30.10,SSE,157,0.0,-999.0,52,-99.99,,,0.00,weatherlink.com 1.10,2013-03-12 12:25:00,
2013-03-12 07:40:00,42.2,27.0,30.10,SE,144,0.0,-999.0,56,-99.99,,,0.00,weatherlink.com 1.10,2013-03-12 12:40:00,
2013-03-12 08:10:00,41.7,28.0,30.11,ESE,108,0.0,-999.0,58,-99.99,,,0.00,weatherlink.com 1.10,2013-03-12 13:10:00,
2013-03-12 08:25:00,42.9,28.0,30.13,ESE,106,0.0,-999.0,55,-99.99,,,0.00,weatherlink.com 1.10,2013-03-12 13:25:00,
2013-03-12 08:40:00,45.6,27.0,30.15,ESE,105,0.0,-999.0,49,-99.99,,,0.00,weatherlink.com 1.10,2013-03-12 13:40:00,
2013-03-12 08:55:00,47.6,28.0,30.16,ESE,105,0.0,-999.0,47,-99.99,,,0.00,weatherlink.com 1.10,2013-03-12 13:55:00,
2013-03-12 09:10:00,48.9,28.0,30.17,ESE,105,0.0,-999.0,45,-99.99,,,0.00,weatherlink.com 1.10,2013-03-12 14:10:00,
2013-03-12 09:25:00,50.2,28.0,30.18,ESE,109,0.0,-999.0,42,-99.99,,,0.00,weatherlink.com 1.10,2013-03-12 14:25:00,
2013-03-12 09:40:00,51.9,27.0,30.18,ESE,120,0.0,-999.0,39,-99.99,,,0.00,weatherlink.com 1.10,2013-03-12 14:40:00,
2013-03-12 09:55:00,52.6,28.0,30.19,ESE,111,0.0,-999.0,39,-99.99,,,0.00,weatherlink.com 1.10,2013-03-12 14:55:00,
2013-03-12 10:10:00,53.8,28.0,30.19,ENE,73,0.0,-999.0,37,-99.99,,,0.00,weatherlink.com 1.10,2013-03-12 15:10:00,
2013-03-12 10:25:00,55.2,28.0,30.20,ESE,107,0.0,-999.0,35,-99.99,,,0.00,weatherlink.com 1.10,2013-03-12 15:25:00,
2013-03-12 10:43:00,56.3,26.0,30.21,ESE,108,2.0,-999.0,31,-99.99,,,0.00,weatherlink.com 1.10,2013-03-12 15:43:00,
2013-03-12 10:56:00,57.0,24.0,30.21,ESE,118,0.0,-999.0,28,-99.99,,,0.00,weatherlink.com 1.10,2013-03-12 15:56:00,
2013-03-12 11:11:00,58.0,24.0,30.21,East,88,7.0,-999.0,27,-99.99,,,0.00,weatherlink.com 1.10,2013-03-12 16:11:00,
2013-03-12 11:26:00,58.3,24.0,30.21,ENE,69,1.0,-999.0,27,-99.99,,,0.00,weatherlink.com 1.10,2013-03-12 16:26:00,
2013-03-12 11:41:00,59.0,26.0,30.21,ESE,110,0.0,-999.0,28,-99.99,,,0.00,weatherlink.com 1.10,2013-03-12 16:41:00,
2013-03-12 11:56:00,60.4,27.0,30.21,ESE,123,0.0,-999.0,28,-99.99,,,0.00,weatherlink.com 1.10,2013-03-12 16:56:00,
2013-03-12 12:11:00,60.4,28.0,30.20,East,86,0.0,-999.0,29,-99.99,,,0.00,weatherlink.com 1.10,2013-03-12 17:11:00,
2013-03-12 12:26:00,60.6,28.0,30.20,ENE,60,0.0,-999.0,29,-99.99,,,0.00,weatherlink.com 1.10,2013-03-12 17:26:00,
2013-03-12 12:41:00,60.8,29.0,30.19,East,88,0.0,-999.0,30,-99.99,,,0.00,weatherlink.com 1.10,2013-03-12 17:41:00,
2013-03-12 12:56:00,61.7,29.0,30.19,ENE,66,2.0,-999.0,29,-99.99,,,0.00,weatherlink.com 1.10,2013-03-12 17:56:00,
2013-03-12 13:26:00,62.9,29.0,30.17,ENE,78,7.0,-999.0,28,-99.99,,,0.00,weatherlink.com 1.10,2013-03-12 18:26:00,
2013-03-12 13:41:00,62.5,29.0,30.17,NE,45,0.0,-999.0,28,-99.99,,,0.00,weatherlink.com 1.10,2013-03-12 18:41:00,
2013-03-12 13:56:00,62.3,29.0,30.18,East,80,0.0,-999.0,28,-99.99,,,0.00,weatherlink.com 1.10,2013-03-12 18:56:00,
2013-03-12 14:11:00,63.0,29.0,30.17,ENE,78,0.0,-999.0,28,-99.99,,,0.00,weatherlink.com 1.10,2013-03-12 19:11:00,
2013-03-12 14:26:00,63.0,29.0,30.17,East,87,4.0,-999.0,28,-99.99,,,0.00,weatherlink.com 1.10,2013-03-12 19:26:00,
2013-03-12 14:41:00,63.3,29.0,30.17,ESE,117,0.0,-999.0,27,-99.99,,,0.00,weatherlink.com 1.10,2013-03-12 19:41:00,
2013-03-12 14:56:00,63.8,29.0,30.16,ENE,69,4.0,-999.0,27,-99.99,,,0.00,weatherlink.com 1.10,2013-03-12 19:56:00,
2013-03-12 15:11:00,63.7,29.0,30.16,ENE,78,3.0,-999.0,27,-99.99,,,0.00,weatherlink.com 1.10,2013-03-12 20:11:00,
2013-03-12 15:56:00,64.9,29.0,30.17,ENE,63,0.0,-999.0,26,-99.99,,,0.00,weatherlink.com 1.10,2013-03-12 20:56:00,
2013-03-12 16:11:00,65.6,30.0,30.16,East,92,0.0,-999.0,26,-99.99,,,0.00,weatherlink.com 1.10,2013-03-12 21:11:00,
2013-03-12 16:26:00,65.7,31.0,30.16,West,260,0.0,-999.0,27,-99.99,,,0.00,weatherlink.com 1.10,2013-03-12 21:26:00,
2013-03-12 16:41:00,66.8,30.0,30.17,WNW,298,0.0,-999.0,25,-99.99,,,0.00,weatherlink.com 1.10,2013-03-12 21:41:00,
2013-03-12 16:56:00,66.0,29.0,30.17,ENE,78,0.0,-999.0,25,-99.99,,,0.00,weatherlink.com 1.10,2013-03-12 21:56:00,
2013-03-12 17:11:00,65.6,30.0,30.17,East,86,0.0,-999.0,26,-99.99,,,0.00,weatherlink.com 1.10,2013-03-12 22:11:00,
2013-03-12 17:28:00,65.3,30.0,30.17,East,98,1.0,-999.0,27,-99.99,,,0.00,weatherlink.com 1.10,2013-03-12 22:28:00,
2013-03-12 17:41:00,65.5,30.0,30.17,SE,138,0.0,-999.0,27,-99.99,,,0.00,weatherlink.com 1.10,2013-03-12 22:41:00,
2013-03-12 17:56:00,65.4,30.0,30.17,NE,55,0.0,-999.0,27,-99.99,,,0.00,weatherlink.com 1.10,2013-03-12 22:56:00,
2013-03-12 18:11:00,65.4,30.0,30.18,NNE,18,1.0,-999.0,27,-99.99,,,0.00,weatherlink.com 1.10,2013-03-12 23:11:00,
2013-03-12 18:26:00,65.2,30.0,30.18,East,80,2.0,-999.0,27,-99.99,,,0.00,weatherlink.com 1.10,2013-03-12 23:26:00,
2013-03-12 18:41:00,63.7,31.0,30.18,NE,51,0.0,-999.0,29,-99.99,,,0.00,weatherlink.com 1.10,2013-03-12 23:41:00,
2013-03-12 18:56:00,63.0,31.0,30.19,NE,40,2.0,-999.0,30,-99.99,,,0.00,weatherlink.com 1.10,2013-03-12 23:56:00,
2013-03-12 19:11:00,62.1,30.0,30.20,East,99,1.0,-999.0,30,-99.99,,,0.00,weatherlink.com 1.10,2013-03-13 00:11:00,
2013-03-12 19:26:00,61.4,30.0,30.20,East,100,0.0,-999.0,31,-99.99,,,0.00,weatherlink.com 1.10,2013-03-13 00:26:00,
2013-03-12 19:41:00,60.8,31.0,30.21,East,92,0.0,-999.0,32,-99.99,,,0.00,weatherlink.com 1.10,2013-03-13 00:41:00,
2013-03-12 19:56:00,60.1,31.0,30.22,East,92,0.0,-999.0,33,-99.99,,,0.00,weatherlink.com 1.10,2013-03-13 00:56:00,
2013-03-12 20:11:00,59.1,31.0,30.23,East,91,0.0,-999.0,34,-99.99,,,0.00,weatherlink.com 1.10,2013-03-13 01:11:00,
2013-03-12 20:26:00,58.6,32.0,30.23,East,91,0.0,-999.0,36,-99.99,,,0.00,weatherlink.com 1.10,2013-03-13 01:26:00,
2013-03-12 20:41:00,57.8,31.0,30.24,NNE,24,0.0,-999.0,36,-99.99,,,0.00,weatherlink.com 1.10,2013-03-13 01:41:00,
2013-03-12 20:56:00,57.6,31.0,30.25,East,79,0.0,-999.0,36,-99.99,,,0.00,weatherlink.com 1.10,2013-03-13 01:56:00,
2013-03-12 21:11:00,57.1,31.0,30.25,ENE,69,0.0,-999.0,37,-99.99,,,0.00,weatherlink.com 1.10,2013-03-13 02:11:00,
2013-03-12 21:26:00,56.7,31.0,30.25,East,98,0.0,-999.0,38,-99.99,,,0.00,weatherlink.com 1.10,2013-03-13 02:26:00,
2013-03-12 21:41:00,55.9,31.0,30.26,East,98,0.0,-999.0,39,-99.99,,,0.00,weatherlink.com 1.10,2013-03-13 02:41:00,
2013-03-12 21:56:00,55.5,31.0,30.27,East,98,0.0,-999.0,39,-99.99,,,0.00,weatherlink.com 1.10,2013-03-13 02:56:00,
2013-03-12 22:27:00,54.8,31.0,30.28,ESE,105,0.0,-999.0,41,-99.99,,,0.00,weatherlink.com 1.10,2013-03-13 03:27:00,
2013-03-12 22:42:00,54.5,30.0,30.28,East,87,0.0,-999.0,40,-99.99,,,0.00,weatherlink.com 1.10,2013-03-13 03:42:00,
2013-03-12 22:57:00,54.0,31.0,30.29,East,80,3.0,-999.0,42,-99.99,,,0.00,weatherlink.com 1.10,2013-03-13 03:57:00,
2013-03-12 23:12:00,54.2,31.0,30.29,NNE,32,0.0,-999.0,41,-99.99,,,0.00,weatherlink.com 1.10,2013-03-13 04:12:00,
2013-03-12 23:27:00,54.2,31.0,30.29,NNE,26,0.0,-999.0,42,-99.99,,,0.00,weatherlink.com 1.10,2013-03-13 04:27:00,
2013-03-12 23:42:00,54.0,32.0,30.30,ENE,65,0.0,-999.0,44,-99.99,,,0.00,weatherlink.com 1.10,2013-03-13 04:42:00,
2013-03-12 23:57:00,53.0,33.0,30.30,ENE,66,0.0,-999.0,47,-99.99,,,0.00,weatherlink.com 1.10,2013-03-13 04:57:00,